sat.trackr.live / text

‹ back to catalog

LARES-2

NORAD 53105 · 2022-080A

PAYLOAD ACTIVE UNKNOWN

§ Identity

Operator
Country
IT
Launch date
2022-07-13
Launch site
FRGUI
Launch vehicle
Mass (kg)
RCS (m²)

Purposes: science

External: N2YO · Heavens-Above · Gunter

§ Orbital elements

Epoch: 2026-05-22T12:00:19.705248Z

Period
225.36 min
Inclination
70.1680°
Eccentricity
0.0005373
Mean motion
6.38965148 rev/d
Perigee alt
5,882.6 km
Apogee alt
5,895.8 km
Semi-major
12,267.3 km
B*
0.0000e+0
RAAN
314.1386°
Arg perigee
340.7508°
Mean anomaly
19.2827°
Rev number
9,002

§ Raw data

LARES-21 53105U 22080A   26142.50022807 -.00000011  00000+0  00000+0 0  99962 53105  70.1680 314.1386 0005373 340.7508  19.2827  6.38965148 90029

JSON: /api/v1/satellites/53105 · /tle

For live sub-satellite position, see the globe view (requires WebGL).

§ Visibility from observer

Set your observer location to see the next 7 days of passes ≥ 10°. The values pass through the URL so the page stays shareable.

No JS? Fill the form by hand. The geolocation button needs JavaScript.

§ Radio — SatNOGS DB

ModeDescriptionDownlinkUplink
CW 532nm Retroreflector 40.000 GHz 40.000 GHz

1 transmitter · refreshed weekly from db.satnogs.org